When you browse on this site, cookies collect data to enhance your experience and personalize the content and advertising you see.
Visit our Privacy Policy to learn more. By continuing to use the site, you agree to this use of cookies and data.
  • In Österreich
  • Länderverzeichnis
  • Für 7 Tage
  • Wassertemperatur
  • Wetterkarte
  • News
  • Widgets
  • user-avatar
    Anmelden

    Stündliche Wetter Kalgoorlie

    Heute, 25 Februar, Dienstag

    Zeit Temperatur Niederschläge Wind Luftdruck Luftfeuchtigkeit
    00:00 +27°C° 0.7 mm 9 m/S 729 mmHg 61%
    01:00 +24°C° 0.7 mm 10 m/S 729 mmHg 67%
    02:00 +22°C° 0 mm 11 m/S 729 mmHg 73%
    03:00 +22°C° 0.6 mm 10 m/S 729 mmHg 73%
    04:00 +23°C° 0.6 mm 9 m/S 729 mmHg 72%
    05:00 +23°C° 0.6 mm 9 m/S 728 mmHg 72%
    06:00 +23°C° 0.7 mm 8 m/S 729 mmHg 68%
    07:00 +24°C° 0.7 mm 7 m/S 729 mmHg 64%
    08:00 +26°C° 0.7 mm 7 m/S 729 mmHg 59%
    09:00 +28°C° 0 mm 6 m/S 729 mmHg 51%
    10:00 +32°C° 0 mm 5 m/S 729 mmHg 43%
    11:00 +35°C° 0 mm 4 m/S 729 mmHg 35%
    12:00 +36°C° 0 mm 4 m/S 729 mmHg 33%
    13:00 +37°C° 0 mm 3 m/S 728 mmHg 31%
    14:00 +37°C° 0 mm 2 m/S 728 mmHg 29%
    15:00 +37°C° 0 mm 4 m/S 728 mmHg 30%
    16:00 +37°C° 0 mm 5 m/S 728 mmHg 31%
    17:00 +38°C° 0 mm 6 m/S 728 mmHg 31%
    18:00 +36°C° 0.1 mm 6 m/S 728 mmHg 35%
    19:00 +34°C° 0.1 mm 6 m/S 728 mmHg 38%
    20:00 +33°C° 0.1 mm 6 m/S 729 mmHg 41%
    21:00 +30°C° 1.3 mm 7 m/S 729 mmHg 50%
    22:00 +28°C° 1.3 mm 9 m/S 730 mmHg 60%
    23:00 +26°C° 1.3 mm 10 m/S 730 mmHg 69%

    Morgen, 26 Februar, Mittwoch

    Zeit Temperatur Niederschläge Wind Luftdruck Luftfeuchtigkeit
    00:00 +26°C° 0 mm 9 m/S 730 mmHg 69%
    01:00 +24°C° 0 mm 8 m/S 729 mmHg 68%
    02:00 +24°C° 0 mm 8 m/S 729 mmHg 68%
    03:00 +23°C° 0 mm 8 m/S 729 mmHg 69%
    04:00 +22°C° 0 mm 8 m/S 729 mmHg 70%
    05:00 +21°C° 0 mm 8 m/S 730 mmHg 71%
    06:00 +21°C° 0 mm 8 m/S 730 mmHg 71%
    07:00 +21°C° 0 mm 7 m/S 731 mmHg 71%
    08:00 +22°C° 0 mm 7 m/S 731 mmHg 71%
    09:00 +23°C° 0 mm 7 m/S 731 mmHg 66%
    10:00 +24°C° 0 mm 7 m/S 731 mmHg 61%
    11:00 +26°C° 0 mm 6 m/S 731 mmHg 55%
    12:00 +28°C° 0 mm 7 m/S 731 mmHg 50%
    13:00 +30°C° 0 mm 7 m/S 730 mmHg 45%
    14:00 +32°C° 0 mm 7 m/S 730 mmHg 40%
    15:00 +33°C° 0 mm 7 m/S 729 mmHg 38%
    16:00 +33°C° 0 mm 7 m/S 729 mmHg 37%
    17:00 +34°C° 0 mm 7 m/S 729 mmHg 35%
    18:00 +33°C° 0 mm 7 m/S 729 mmHg 38%
    19:00 +32°C° 0 mm 6 m/S 730 mmHg 40%
    20:00 +30°C° 0 mm 5 m/S 730 mmHg 42%
    21:00 +29°C° 0 mm 7 m/S 730 mmHg 45%
    22:00 +28°C° 0 mm 8 m/S 730 mmHg 48%
    23:00 +27°C° 0 mm 10 m/S 730 mmHg 51%

    übermorgen, 27 Februar, Donnerstag

    Zeit Temperatur Niederschläge Wind Luftdruck Luftfeuchtigkeit
    00:00 +26°C° 0 mm 10 m/S 730 mmHg 55%
    01:00 +23°C° 0 mm 10 m/S 729 mmHg 58%
    02:00 +22°C° 0 mm 9 m/S 729 mmHg 62%
    03:00 +22°C° 0 mm 9 m/S 729 mmHg 63%
    04:00 +21°C° 0 mm 8 m/S 729 mmHg 64%
    05:00 +21°C° 0 mm 7 m/S 729 mmHg 65%
    06:00 +21°C° 0 mm 7 m/S 730 mmHg 63%
    07:00 +21°C° 0 mm 8 m/S 730 mmHg 62%
    08:00 +22°C° 0 mm 8 m/S 731 mmHg 60%
    09:00 +24°C° 0 mm 8 m/S 731 mmHg 54%
    10:00 +27°C° 0 mm 8 m/S 730 mmHg 49%
    11:00 +29°C° 0 mm 8 m/S 730 mmHg 43%
    12:00 +32°C° 0 mm 8 m/S 730 mmHg 38%
    13:00 +34°C° 0 mm 8 m/S 729 mmHg 34%
    14:00 +36°C° 0 mm 7 m/S 728 mmHg 29%
    15:00 +37°C° 0 mm 8 m/S 728 mmHg 29%
    16:00 +37°C° 0 mm 8 m/S 728 mmHg 28%
    17:00 +37°C° 0 mm 8 m/S 728 mmHg 27%
    18:00 +35°C° 0 mm 8 m/S 728 mmHg 29%
    19:00 +34°C° 0 mm 8 m/S 728 mmHg 31%
    20:00 +33°C° 0 mm 8 m/S 728 mmHg 33%
    21:00 +32°C° 0 mm 9 m/S 728 mmHg 33%
    22:00 +31°C° 0 mm 10 m/S 728 mmHg 33%
    23:00 +29°C° 0 mm 11 m/S 728 mmHg 33%

    28 Februar, Freitag

    Zeit Temperatur Niederschläge Wind Luftdruck Luftfeuchtigkeit
    00:00 +27°C° 0 mm 10 m/S 728 mmHg 36%
    01:00 +26°C° 0 mm 10 m/S 728 mmHg 39%
    02:00 +24°C° 0 mm 9 m/S 727 mmHg 42%
    03:00 +24°C° 0 mm 9 m/S 727 mmHg 42%
    04:00 +23°C° 0 mm 8 m/S 727 mmHg 43%
    05:00 +23°C° 0 mm 7 m/S 727 mmHg 43%
    06:00 +24°C° 0 mm 7 m/S 728 mmHg 41%
    07:00 +24°C° 0 mm 7 m/S 728 mmHg 39%
    08:00 +26°C° 0 mm 7 m/S 728 mmHg 38%
    09:00 +28°C° 0 mm 7 m/S 728 mmHg 33%
    10:00 +32°C° 0 mm 7 m/S 728 mmHg 29%
    11:00 +34°C° 0 mm 7 m/S 728 mmHg 24%
    12:00 +35°C° 0 mm 6 m/S 727 mmHg 22%
    13:00 +37°C° 0 mm 5 m/S 727 mmHg 20%
    14:00 +39°C° 0 mm 5 m/S 726 mmHg 18%
    15:00 +40°C° 0 mm 4 m/S 726 mmHg 18%
    16:00 +40°C° 0 mm 4 m/S 726 mmHg 18%
    17:00 +39°C° 0 mm 3 m/S 725 mmHg 19%
    18:00 +37°C° 0 mm 5 m/S 726 mmHg 21%
    19:00 +35°C° 0 mm 7 m/S 726 mmHg 24%
    20:00 +33°C° 0 mm 8 m/S 726 mmHg 27%
    21:00 +32°C° 0 mm 8 m/S 726 mmHg 27%
    22:00 +32°C° 0 mm 7 m/S 726 mmHg 27%
    23:00 +30°C° 0 mm 7 m/S 726 mmHg 26%

    29 Februar, Samstag

    Zeit Temperatur Niederschläge Wind Luftdruck Luftfeuchtigkeit
    00:00 +30°C° 0 mm 7 m/S 726 mmHg 28%
    01:00 +29°C° 0 mm 8 m/S 726 mmHg 29%
    02:00 +28°C° 0 mm 8 m/S 726 mmHg 30%
    03:00 +28°C° 0 mm 8 m/S 726 mmHg 30%
    04:00 +28°C° 0 mm 7 m/S 726 mmHg 29%
    05:00 +27°C° 0 mm 7 m/S 726 mmHg 28%
    06:00 +28°C° 0 mm 7 m/S 726 mmHg 26%
    07:00 +28°C° 0 mm 7 m/S 726 mmHg 24%
    08:00 +29°C° 0 mm 7 m/S 727 mmHg 22%
    09:00 +32°C° 0 mm 7 m/S 727 mmHg 19%
    10:00 +34°C° 0 mm 6 m/S 727 mmHg 17%
    11:00 +36°C° 0 mm 5 m/S 727 mmHg 14%
    12:00 +37°C° 0 mm 5 m/S 727 mmHg 13%
    13:00 +38°C° 0 mm 4 m/S 726 mmHg 13%
    14:00 +39°C° 0 mm 3 m/S 726 mmHg 12%
    15:00 +39°C° 0 mm 2 m/S 725 mmHg 13%
    16:00 +39°C° 0 mm 2 m/S 725 mmHg 15%
    17:00 +37°C° 0 mm 1 m/S 725 mmHg 16%
    18:00 +37°C° 0 mm 2 m/S 725 mmHg 16%
    19:00 +36°C° 0 mm 2 m/S 725 mmHg 17%
    20:00 +35°C° 0 mm 3 m/S 726 mmHg 17%
    21:00 +35°C° 0 mm 3 m/S 726 mmHg 18%
    22:00 +35°C° 0 mm 3 m/S 726 mmHg 19%
    23:00 +34°C° 0 mm 4 m/S 726 mmHg 19%

    1 März, Sonntag

    Zeit Temperatur Niederschläge Wind Luftdruck Luftfeuchtigkeit
    00:00 +33°C° 0 mm 4 m/S 726 mmHg 21%
    01:00 +32°C° 0 mm 4 m/S 725 mmHg 23%
    02:00 +30°C° 0 mm 4 m/S 725 mmHg 25%
    03:00 +29°C° 0 mm 5 m/S 725 mmHg 31%
    04:00 +28°C° 0 mm 5 m/S 725 mmHg 37%
    05:00 +26°C° 0 mm 6 m/S 725 mmHg 43%
    06:00 +27°C° 0 mm 6 m/S 726 mmHg 43%
    07:00 +27°C° 0 mm 6 m/S 726 mmHg 44%
    08:00 +27°C° 0 mm 6 m/S 726 mmHg 45%
    09:00 +29°C° 0 mm 5 m/S 726 mmHg 38%
    10:00 +32°C° 0 mm 4 m/S 726 mmHg 32%
    11:00 +34°C° 0 mm 4 m/S 726 mmHg 26%
    12:00 +36°C° 0 mm 4 m/S 726 mmHg 23%
    13:00 +38°C° 0 mm 3 m/S 726 mmHg 20%
    14:00 +39°C° 0 mm 3 m/S 725 mmHg 18%
    15:00 +40°C° 0 mm 4 m/S 725 mmHg 18%
    16:00 +40°C° 0 mm 4 m/S 725 mmHg 19%
    17:00 +41°C° 0 mm 4 m/S 725 mmHg 19%
    18:00 +39°C° 0 mm 5 m/S 725 mmHg 23%
    19:00 +36°C° 0 mm 6 m/S 726 mmHg 26%
    20:00 +35°C° 0 mm 7 m/S 726 mmHg 30%
    21:00 +33°C° 0 mm 8 m/S 726 mmHg 34%
    22:00 +31°C° 0 mm 9 m/S 727 mmHg 39%
    23:00 +29°C° 0 mm 10 m/S 727 mmHg 43%
    Mehr zeigen